Location: ??? ????
(38.0580°N, 23.1536°E)
Time: 14:17:38
(UTC+00:00)

Meteor 1-20 Rocket - Pass Details

Date: 13 December 2025
Orbit: 818 x 890 km, 81.2° (Epoch: 17 January)

Event Time Altitude Azimuth Distance (km) Brightness Sun altitude
Rises 15:32:10 0° 352° (N) 3,355 7.1 -5.0°
Reaches altitude 10° 15:34:34 10° 354° (N) 2,418 6.4 -5.4°
Maximum altitude 15:40:02 77° 81° (E) 845 4.1 -6.4°
Drops below altitude 10° 15:45:30 10° 167° (SSE) 2,422 6.7 -7.4°
Sets 15:47:55 0° 169° (S) 3,359 7.5 -7.8°
